This is the latest recevied weather packets stored in our database for station/object M0HPP-13. If no packets are shown the sender has not sent any weather packets the latest 10 day(s).
| Time | Temp. | Humidity | Pressure | Rain* | Wind** | Luminosity | Snow |
|---|---|---|---|---|---|---|---|
| 1788000486 | 16.11° C | 85% | 1003.2 hPa | 0 mm | - | 246 W/m² | - |
| 1787999886 | 15.56° C | 87% | 1003.2 hPa | 0 mm | - | 208 W/m² | - |
| 1787999286 | 15.56° C | 88% | 1003.1 hPa | 0 mm | - | 136 W/m² | - |
| 1787998686 | 15° C | 89% | 1003.3 hPa | 0 mm | - | 214 W/m² | - |
| 1787998086 | 14.44° C | 92% | 1003.2 hPa | 0 mm | - | 214 W/m² | - |
| 1787997486 | 13.89° C | 97% | 1003.1 hPa | 0 mm | - | 186 W/m² | - |
| 1787996886 | 13.33° C | 97% | 1003.1 hPa | 0 mm | - | 126 W/m² | - |
| 1787996286 | 13.33° C | 96% | 1003.1 hPa | 0 mm | - | 62 W/m² | - |
| 1787995686 | 13.89° C | 92% | 1003 hPa | 0 mm | - | 85 W/m² | - |
| 1787995086 | 13.89° C | 92% | 1002.9 hPa | 0 mm | - | 91 W/m² | - |
| 1787994486 | 13.89° C | 92% | 1002.9 hPa | 0 mm | - | 75 W/m² | - |
| 1787993886 | 13.89° C | 92% | 1002.8 hPa | 0 mm | - | 86 W/m² | - |
| 1787993286 | 13.89° C | 94% | 1002.8 hPa | 0 mm | - | 96 W/m² | - |
| 1787992686 | 13.33° C | 96% | 1002.8 hPa | 0 mm | - | 99 W/m² | - |
| 1787992086 | 13.33° C | 96% | 1002.7 hPa | 0 mm | - | 44 W/m² | - |
| 1787991486 | 13.33° C | 96% | 1002.8 hPa | 0 mm | - | 31 W/m² | - |
| 1787990886 | 13.33° C | 96% | 1002.8 hPa | 0 mm | - | 46 W/m² | - |
| 1787990286 | 12.78° C | 97% | 1002.8 hPa | 0 mm | - | 60 W/m² | - |
| 1787989686 | 12.78° C | 97% | 1002.7 hPa | 0 mm | - | 45 W/m² | - |
| 1787989086 | 12.78° C | 97% | 1002.8 hPa | 0 mm | - | 48 W/m² | - |
| 1787988486 | 12.78° C | 96% | 1002.7 hPa | 0 mm | - | 25 W/m² | - |
| 1787987886 | 12.78° C | 95% | 1002.6 hPa | 0 mm | - | 17 W/m² | - |
| 1787987286 | 12.78° C | 96% | 1002.6 hPa | 0 mm | - | 16 W/m² | - |
| 1787986686 | 12.78° C | 96% | 1002.5 hPa | 0 mm | - | 23 W/m² | - |
| 1787986086 | 12.78° C | 97% | 1002.4 hPa | 0 mm | - | 26 W/m² | - |
* Rain latest hour (hover to see other rain measurements)
** Current wind speed in m/s (hover to see current wind gust speed)